SL-14 DEB, 45357

Orbit data source: Space-Track

SL-14 DEB, 45357 is space debris in LEO originally from a launch on Thu, 15 Aug 1991 UTC launched from the Plesetsk Missile And Space Complex (PKMTR). Debris objects in space refer to the collection of defunct objects orbiting the Earth. Examples of debris include non-operational satellites, rocket bodies, and fragments generated from explosions, collisions, or faulty payload assembly.

Loading next visibility...
SL-14 DEB details
Identifier
45357, 1991-056CR
Orbit
LEO
Last TLE update5 days ago
Origin
Flag of CISRosgidromet (CIS)
ManufacturerUnknown
MissionSpacecraft
Bus & MotorUnknown
MassUnknown
Launch date (UTC)
1991-08-15 (33 years ago)
Launch vehicleUnknown
Launch site
Plesetsk Missile And Space Complex (PKMTR)
Object type
Payload
Rocket body
Debris
Shape & HBRUnknown
Radar Cross SectionSmall (<0.1 m²)

Expand to show TLE details & history

TLE from 5 days ago
0 SL-14 DEB
1 45357U 91056CR  24356.33516316  .00002253  00000-0  43251-2 0  9992
2 45357  82.5676 129.0992 0081686 223.4716 135.9958 13.35604120233740
Epoch: 2024-12-21T08:02Z
Definitive object data (Epoch: 2024-12-21T08:02:38.097Z)
Latitude-0.00007°
Longitude-81.94735°
Altitude1,172.87 km
Speed7.245 km/s
True Right ascension08h 36m 23s
True Declination0° 00' 00"
Sunlit
Object was in full shadow at TLE epoch
Visualization TLE readout
Latitude-24.07741°
Longitude97.57911°
Altitude1,073.566 km
Speed7.344 km/s
Apparent Right ascension22h 10m 46s
Apparent Declination-34° 41' 17"
Sunlit
Object is in daylight
Visualization observer readout
Local Sidereal Time12:28:51
Azimuth90.219° ESE
Elevation-62.227°
Doppler factor1
Orbital elements
Apogee altitude1,184.19 km
Perigee altitude1,061.644 km
Semi-major axis7,501.054 km
Eccentricity0.0081686
Inclination82.5676°
RAAN129.0992°
Arg. of periapsis223.4716°
True anomaly136.64133°
Mean anomaly135.9958°
Eccentric anomaly136.31904°
Mean motion3.34087 °/min
BSTAR0.0043251
Orbital period107.76 mins
Loading maneuver chart data...
Loading historical data...
Loading historical data...
Loading historical data...
Loading historical data...
Loading historical data...
Loading historical data...
Loading historical data...

SL-14 DEB Visibility forecast

Observer location: undefined°, undefined

Span
Click to sort rows by Start time (UTC) header in descending order
Start Az.
Max El. time (UTC)
Max El. Az.
Max El.
End time (UTC)
End Az.
12 mins2024-12-26 19:53:14.172Z3.419° NNE2024-12-26 19:59:14.172Z74.257° E38.425°2024-12-26 20:05:14.172Z151.93° SSE
9 mins2024-12-26 21:43:14.172Z321.15° NNW2024-12-26 21:47:14.172Z280.108° WNW22.811°2024-12-26 21:52:14.172Z227.863° WSW
10 mins2024-12-27 08:00:14.172Z131.048° SE2024-12-27 08:05:14.172Z78.24° E24.38°2024-12-27 08:10:14.172Z32.409° NE
12 mins2024-12-27 09:47:14.172Z209.511° SW2024-12-27 09:53:14.172Z288.998° WNW38.643°2024-12-27 09:59:14.172Z356.238° N
|